Location: Unspecified
(0.0000°N, 0.0000°E)
Time: 11:24:46
(UTC+00:00)

Transit 2A Rocket - Pass Details

Date: 29 November 2019
Orbit: 594 x 909 km, 66.7° (Epoch: 07 December)

Event Time Altitude Azimuth Distance (km) Brightness Sun altitude
Rises 06:09:41 0° 322° (NW) 3,043 7.6 5.0°
Reaches altitude 10° 06:12:06 10° 313° (NW) 2,179 6.8 5.6°
Maximum altitude 06:16:34 34° 249° (WSW) 1,238 5.8 6.6°
Drops below altitude 10° 06:21:27 10° 185° (S) 2,378 7.8 7.7°
Sets 06:24:12 0° 176° (S) 3,364 8.7 8.4°
